Location: Maccacari
(45.1333°N, 11.1333°E)
Time: 14:57:07
(UTC+00:00)

S-56A Canister/Altair - Pass Details

Date: 27 January 2021
Orbit: 631 x 2501 km, 38.9° (Epoch: 01 March)

Event Time Altitude Azimuth Distance (km) Brightness Sun altitude
Rises 22:50:33 0° 204° (SSW) 3,749 - -61.9°
Reaches altitude 10° 22:55:08 10° 177° (S) 2,447 - -62.2°
Maximum altitude 22:57:22 12° 153° (SSE) 2,133 - -62.3°
Drops below altitude 10° 22:59:26 10° 128° (SE) 2,189 - -62.4°
Sets 23:02:59 0° 98° (E) 2,965 - -62.6°
